RH
33 29 27 27 27 27 38 50 64 68 62 63 61 60 62 63 63 63 64 61 62 63 65 67 64 64 63 62 67 71 71 71 72 72 73 75 77 77 73 69 69 71 73 74 72 72 72 73 76 81 83 80 79 80 79 75 72 69 66 64 62 62 62 62 62 62 61 61 61 61 62 62 62 62 60 60 59 58 57 56 56 56 55 55 55 54 53 53 52 51 50 50 49 49 49 48 47
39 35 33 33 32 29 36 47 67 76 67 63 62 62 61 62 64 64 66 63 63 63 65 67 64 64 65 65 66 68 73 74 75 76 76 77 78 75 72 71 72 75 76 76 73 74 76 76 78 81 82 80 79 79 79 77 75 71 67 65 65 65 65 65 65 65 65 64 64 64 63 63 63 62 61 60 59 58 57 56 56 55 55 53 53 52 52 51 51 51 51 51 50 49 48 48 47
45 41 38 37 37 33 37 43 59 72 69 64 61 61 60 60 63 64 65 63 62 60 62 63 62 64 64 66 65 68 73 75 78 79 79 79 79 76 73 73 76 78 79 79 77 78 83 86 83 80 80 81 79 78 78 77 74 72 70 69 68 68 68 69 69 68 68 67 66 66 65 64 63 62 60 59 58 57 56 55 54 53 52 51 50 49 48 48 48 48 49 49 49 49 48 48 47
50 48 44 41 41 38 40 44 51 60 63 63 60 59 61 60 59 60 61 61 60 58 59 60 63 64 64 66 66 70 73 76 79 78 79 80 81 80 77 78 81 82 82 81 80 81 86 90 86 81 81 83 82 80 79 78 76 74 72 71 70 70 70 71 71 70 70 70 69 69 67 65 64 62 60 58 57 56 54 52 50 49 48 47 47 46 45 45 44 44 44 45 46 47 48 47 46
55 53 49 45 45 43 46 49 47 46 49 54 54 54 59 59 55 56 58 58 58 57 57 59 63 65 65 67 67 71 76 76 78 77 80 83 83 85 83 83 85 86 84 80 79 79 79 82 83 81 81 84 84 82 82 80 78 77 76 75 74 73 73 73 73 73 73 72 72 70 68 66 64 62 60 57 55 53 51 48 46 45 44 43 43 42 41 41 41 40 40 41 43 45 46 47 47
58 54 50 47 47 45 46 52 47 41 41 44 45 47 54 56 52 51 54 55 55 56 57 59 63 66 69 70 70 74 77 79 81 82 84 84 86 90 89 86 84 85 84 81 79 78 77 78 79 79 80 83 83 82 81 81 80 80 80 79 78 78 77 76 76 77 76 75 73 72 69 67 64 61 58 55 52 49 47 44 42 41 40 39 39 38 38 38 37 37 39 41 41 43 44 45 46
62 58 54 51 52 49 49 54 49 43 44 45 45 47 52 53 50 51 56 55 53 54 55 59 60 64 68 69 71 75 78 83 85 86 88 84 86 92 91 88 85 82 84 85 83 80 80 80 81 82 83 83 82 81 82 83 83 83 82 81 80 79 78 77 77 76 75 74 72 70 66 64 61 57 54 51 50 46 44 42 39 38 37 37 37 37 37 37 37 37 40 42 41 41 42 43 43
68 65 61 61 62 58 56 55 50 48 48 49 49 50 54 53 50 53 58 56 55 55 54 56 57 62 70 69 70 76 80 84 85 87 89 86 87 92 90 88 84 83 86 87 86 83 81 81 83 85 85 85 84 83 84 84 85 84 83 81 79 78 77 76 75 74 72 70 68 64 61 58 55 53 50 49 47 44 42 40 39 38 38 38 38 38 38 38 38 38 41 43 42 42 42 42 41
74 69 66 67 67 63 61 57 51 50 52 52 52 52 56 57 52 52 56 55 54 53 54 55 56 62 71 70 70 77 82 84 86 86 88 89 89 90 89 85 83 85 87 87 88 86 84 85 86 87 88 89 88 86 85 85 85 84 82 80 78 77 76 75 73 71 69 67 64 62 59 56 53 50 48 47 45 44 42 42 41 41 40 39 39 39 39 39 38 39 41 42 43 43 42 42 40
80 74 70 72 71 66 61 58 55 53 53 53 54 55 58 57 54 55 55 56 55 51 54 57 58 65 71 70 71 80 85 86 87 87 89 91 89 88 86 85 87 88 88 88 88 86 87 90 91 91 91 90 90 90 88 86 85 83 81 79 77 75 74 72 70 69 67 65 63 62 60 56 53 50 48 47 46 44 44 43 42 42 41 41 40 40 39 39 38 37 38 39 41 41 42 41 39
85 81 79 81 78 69 62 58 57 56 54 53 55 56 57 56 55 58 58 65 69 61 62 67 67 70 72 72 76 84 87 88 89 90 92 91 87 87 87 88 90 90 90 90 89 89 91 93 92 92 91 89 89 90 88 85 82 80 78 76 73 72 70 69 68 67 66 65 64 63 60 57 54 52 50 49 48 47 45 44 43 43 42 41 40 40 39 38 38 37 36 37 37 37 37 37 35
90 91 90 88 81 72 64 59 57 56 54 53 56 55 56 56 56 59 59 70 80 75 74 78 78 76 76 77 83 89 89 90 92 94 93 89 86 88 89 91 92 91 92 92 91 92 93 93 92 91 91 91 90 88 85 81 79 77 75 72 70 69 69 70 69 68 68 66 65 63 62 58 56 54 53 52 51 50 48 47 46 44 42 41 40 39 38 38 38 37 37 36 35 34 34 33 32
94 94 94 90 84 77 68 62 59 57 53 53 56 56 58 56 57 60 57 67 83 86 84 83 82 84 85 83 87 90 90 92 94 96 93 87 87 90 90 91 93 93 93 93 93 93 93 93 92 92 91 90 87 85 81 77 76 74 74 73 72 71 71 70 70 69 68 67 66 65 64 62 60 58 57 56 54 53 51 50 48 46 44 42 41 40 38 37 37 35 34 34 33 32 33 32 32
89 88 91 90 89 87 77 68 62 57 56 56 56 57 60 58 59 60 58 68 82 87 89 88 86 90 92 89 90 91 91 93 93 95 94 90 90 92 91 92 93 94 94 94 93 92 91 90 89 89 88 85 82 80 79 78 77 75 75 75 73 72 71 69 68 68 67 67 67 67 66 66 65 62 61 60 58 56 55 53 51 48 47 44 43 43 40 38 36 34 32 31 30 30 30 31 31
82 81 86 89 89 89 83 77 69 62 61 59 56 57 60 60 60 62 61 66 75 81 88 90 88 90 92 91 93 92 91 93 93 94 93 92 92 93 93 94 94 93 92 90 89 89 88 88 86 86 84 83 81 79 78 78 77 75 74 73 71 70 69 68 67 68 68 68 69 70 70 69 68 65 64 63 62 61 60 58 55 51 49 47 46 46 44 41 38 36 34 33 32 30 30 30 30
77 77 83 84 84 85 82 83 81 73 65 58 57 57 61 62 61 64 65 65 69 73 82 88 87 89 89 87 91 91 89 91 92 93 92 93 93 93 93 92 92 90 89 88 88 87 86 86 84 83 82 79 78 76 74 72 70 68 68 66 66 66 67 67 68 69 70 71 72 72 73 72 69 67 65 65 65 65 64 62 58 55 52 51 50 49 47 46 43 41 39 37 35 33 31 30 29
71 75 80 78 76 80 81 86 90 83 66 57 60 63 67 71 67 67 69 68 68 72 79 84 84 86 87 87 91 91 90 91 93 95 94 94 93 91 90 89 88 87 85 85 84 83 81 81 79 78 77 75 74 72 70 67 66 66 66 66 66 67 68 68 69 70 71 73 73 72 72 71 68 67 67 66 66 66 64 62 59 57 54 52 50 48 47 46 45 43 41 39 37 34 31 30 29
71 75 78 74 71 74 78 88 94 87 69 62 70 72 72 76 72 65 66 70 70 73 79 82 82 84 85 87 89 90 90 92 93 94 92 91 90 88 87 85 84 83 81 80 79 78 77 76 75 73 72 71 70 68 67 66 65 66 68 69 69 70 71 70 69 69 68 69 70 70 69 68 67 67 66 66 65 63 60 56 53 51 50 48 45 43 41 40 38 36 36 36 36 34 31 29 26
74 78 78 75 73 70 74 87 93 89 79 71 75 76 75 77 73 64 63 69 71 73 77 79 81 82 82 83 85 86 86 88 90 91 90 88 87 86 84 82 81 80 78 77 75 73 72 71 70 68 67 66 66 66 66 65 65 65 66 67 69 69 69 68 66 65 64 62 62 63 63 61 60 59 58 56 54 52 47 42 39 37 36 36 34 33 30 29 28 27 28 29 29 28 26 24 22
73 77 80 78 77 72 72 84 89 89 87 83 81 78 77 77 75 69 64 67 69 72 74 75 77 79 79 80 82 83 84 85 87 88 87 85 84 83 81 80 79 77 75 73 71 69 67 65 63 62 62 62 63 64 65 66 65 64 64 64 64 63 61 60 59 58 58 57 56 55 55 52 50 47 44 41 38 35 31 28 26 25 24 23 23 22 21 20 20 20 21 21 21 20 19 18 17
73 75 78 78 79 77 73 80 86 85 87 89 88 82 79 77 76 74 67 68 70 69 68 70 73 75 76 78 79 80 81 83 83 84 83 81 79 77 76 75 73 71 69 67 64 62 60 59 58 58 57 58 60 62 63 64 62 61 59 57 55 53 51 49 48 48 48 48 48 46 43 40 38 35 33 30 28 25 23 22 20 19 19 18 18 18 18 18 18 18 17 17 17 17 17 16 16
73 74 75 76 78 78 74 78 84 84 85 88 89 85 83 81 80 79 74 74 73 69 67 68 71 73 74 75 75 76 76 78 78 78 76 75 74 72 71 69 67 66 64 62 60 59 59 58 57 55 53 53 54 56 57 56 54 53 51 48 45 43 41 39 37 37 36 36 35 34 31 29 27 26 25 24 23 22 20 20 19 18 18 18 18 18 18 18 18 18 18 17 18 17 17 16 16
73 74 74 75 75 75 74 76 82 83 84 86 88 86 84 82 83 83 79 77 75 71 72 72 74 76 74 74 74 74 74 74 74 73 71 71 70 70 69 67 66 64 63 62 61 61 60 59 57 53 49 47 47 46 46 46 45 43 40 38 36 34 32 31 29 28 27 26 25 24 23 23 21 21 20 20 19 18 18 18 17 17 18 18 18 18 18 18 18 17 17 17 17 17 17 17 17
73 75 75 74 73 73 72 75 79 81 83 87 87 82 82 81 81 80 79 78 75 73 73 73 75 75 74 74 74 73 73 73 74 73 71 70 68 68 68 67 67 66 65 63 62 61 60 58 54 48 44 41 39 38 37 35 33 31 29 27 26 25 24 23 23 21 21 20 20 19 19 19 19 18 18 18 17 17 17 16 16 15 16 16 16 16 16 16 15 15 15 15 15 15 15 15 15
72 75 77 75 71 70 71 72 74 77 82 87 86 80 79 79 77 77 76 75 73 73 72 71 72 72 72 71 71 71 71 71 72 71 70 69 68 67 67 66 66 65 63 62 61 59 56 53 48 43 39 35 33 30 29 27 25 23 22 21 20 19 19 19 18 18 18 18 17 17 17 17 16 16 16 16 16 16 15 15 14 14 13 13 13 12 12 12 12 11 11 12 12 12 12 13 13
71 71 75 76 69 66 72 77 75 76 80 83 83 81 79 76 74 75 74 73 72 71 71 70 70 71 71 70 71 71 70 70 69 68 67 67 66 65 64 64 63 62 61 59 58 54 51 46 41 37 33 31 29 27 26 24 23 21 20 20 19 18 17 17 16 16 16 16 16 15 15 15 15 15 15 14 14 14 13 13 13 12 12 12 12 12 11 11 10 10 10 10 10 10 10 11 11
71 68 70 72 68 64 69 76 77 77 79 80 80 81 78 73 72 73 72 72 71 70 70 71 71 71 72 71 71 71 69 68 67 66 65 64 63 63 62 62 61 60 59 56 52 47 42 38 34 32 30 29 28 26 25 23 21 20 19 18 17 17 16 16 15 14 14 14 14 14 13 13 13 13 13 12 12 12 12 11 11 11 11 11 11 11 11 11 11 10 10 10 10 9 9 9 9
66 68 67 69 69 66 66 69 71 73 76 77 75 74 73 70 68 68 68 69 69 69 71 73 73 72 72 72 73 72 71 69 66 64 62 61 60 60 60 58 57 56 52 46 40 35 32 30 29 28 27 26 25 23 21 20 19 18 17 17 16 16 15 15 14 13 13 13 12 12 12 11 11 11 11 11 11 11 10 10 10 10 9 9 9 9 9 9 9 9 9 9 9 9 9 9 8
56 63 66 69 70 69 69 69 70 71 75 75 71 70 71 70 67 64 64 66 66 66 69 72 73 73 73 73 73 72 71 68 64 62 60 59 57 56 53 51 48 45 39 34 30 27 26 26 26 25 24 23 21 19 18 17 16 16 15 15 15 14 14 14 13 12 11 11 10 10 9 9 9 9 9 9 9 9 9 9 9 9 8 8 8 8 8 8 8 8 8 8 8 8 8 8 8
50 55 58 63 65 65 64 67 70 71 73 73 71 72 72 68 65 63 62 63 63 64 67 69 69 70 70 70 70 69 66 62 58 55 53 51 50 47 44 41 37 33 30 27 26 25 25 25 24 23 22 20 18 17 16 16 15 15 15 15 15 14 14 13 12 12 11 11 11 11 11 11 11 11 11 11 12 12 12 12 12 12 12 12 11 11 11 11 11 10 10 10 10 10 9 9 9
49 49 53 56 55 56 54 55 60 62 62 62 65 70 69 64 61 60 60 60 61 65 67 66 66 66 66 66 65 62 56 50 46 44 42 40 38 35 34 32 29 27 27 26 25 25 25 25 24 23 21 19 18 17 17 17 17 17 18 18 18 17 16 16 16 16 16 17 17 17 18 18 18 18 18 19 19 19 20 20 20 20 20 20 20 20 19 19 19 19 18 17 17 16 16 15 14
51 47 51 52 48 52 48 41 45 46 45 45 52 62 63 58 55 53 52 53 57 62 65 65 65 64 62 60 57 51 47 44 41 38 36 34 32 30 29 28 28 27 27 27 27 27 27 27 26 24 22 21 21 21 22 22 23 23 23 22 22 21 22 22 22 23 23 23 23 24 23 23 24 24 24 24 24 24 24 24 24 24 24 24 24 24 24 24 24 24 24 23 23 23 23 22 21
54 48 49 49 46 48 42 34 36 36 35 37 40 49 52 48 45 44 43 45 50 56 59 60 61 59 57 54 50 47 45 42 38 36 34 32 31 30 29 28 28 28 29 29 29 29 30 30 29 27 26 26 26 26 27 27 27 27 27 26 26 26 26 26 26 26 26 27 27 27 26 26 26 26 25 25 24 24 23 23 22 22 22 21 20 20 20 20 20 21 21 21 21 21 21 21 21
50 47 47 48 47 44 40 38 37 34 36 38 39 42 45 42 38 38 38 40 45 51 54 54 54 52 50 49 48 45 42 39 37 35 34 32 31 30 30 31 31 31 32 32 33 33 34 34 33 31 30 30 30 31 31 31 31 31 30 29 29 28 28 27 27 26 26 26 26 25 25 24 24 23 23 22 21 19 18 17 17 16 16 15 15 15 15 16 15 16 16 16 16 16 16 16 16
45 46 46 47 47 44 43 45 43 40 42 44 44 44 44 40 37 37 37 39 43 48 51 51 50 48 46 46 46 43 40 39 38 37 35 35 34 34 34 35 35 36 37 37 38 38 38 37 35 34 33 34 34 35 34 33 32 32 30 29 28 27 26 25 24 24 23 22 22 21 20 20 20 19 19 18 18 17 15 14 13 12 11 11 11 12 12 12 12 12 13 13 13 14 14 14 13
46 48 48 47 46 45 46 50 50 48 50 52 51 51 49 44 42 42 42 42 45 49 51 52 51 49 48 48 47 44 43 43 43 42 41 40 40 40 40 40 40 40 40 40 40 40 41 40 39 38 37 37 37 36 34 32 31 30 28 26 24 23 22 21 21 20 19 19 18 18 18 17 17 17 17 17 17 17 16 15 13 11 10 10 10 10 11 11 11 11 11 12 12 12 13 13 13
50 51 50 47 45 45 46 51 53 52 56 59 56 56 56 51 49 49 49 49 50 52 54 56 56 55 55 54 52 50 50 51 50 49 47 47 46 45 44 43 43 43 42 43 43 43 44 43 41 39 37 36 35 34 32 30 30 29 27 25 22 21 20 19 18 17 17 16 17 17 17 17 17 18 18 18 19 19 19 17 15 12 11 11 11 12 12 12 12 12 12 12 12 12 13 13 13
55 54 52 51 51 50 49 52 55 55 59 62 58 59 59 56 54 52 53 54 54 55 57 58 60 60 61 59 58 57 56 56 54 52 50 50 49 48 48 47 46 46 46 46 45 45 45 43 40 37 34 33 32 31 30 29 29 28 27 25 24 22 21 19 18 17 17 17 18 18 19 19 19 20 20 21 22 22 21 18 15 13 13 13 13 14 14 14 14 13 13 13 13 14 14 15 15
56 56 54 56 58 58 57 56 57 56 59 62 61 61 61 58 56 53 53 54 54 55 56 58 60 62 62 61 59 58 57 56 54 53 52 51 51 51 50 49 48 47 46 46 45 44 44 41 37 34 31 29 29 28 28 28 28 28 27 26 25 23 21 20 19 19 20 20 21 22 22 23 23 23 24 24 23 23 21 18 16 15 15 15 15 15 15 15 15 15 15 15 15 15 15 17 17
56 56 56 59 61 61 61 61 60 60 60 62 60 61 62 60 58 55 54 53 54 55 56 57 59 61 61 60 59 59 58 57 56 55 54 53 52 51 50 49 47 46 45 44 44 44 43 40 37 34 31 29 28 27 27 28 27 27 27 25 24 23 22 22 22 23 23 24 24 25 25 26 26 25 25 25 24 22 20 18 16 16 17 17 17 17 17 17 18 18 18 19 19 19 18 19 19
57 59 58 61 64 63 64 64 63 63 63 62 61 61 61 60 59 58 57 56 56 57 57 59 60 61 62 62 62 61 60 58 56 55 54 52 51 49 48 47 45 44 44 44 44 44 43 42 39 35 32 30 29 29 29 28 28 27 26 25 25 24 24 25 26 27 27 27 27 28 28 28 27 26 26 25 24 22 20 19 19 19 19 19 19 19 20 20 20 21 21 22 23 23 23 23 23
61 62 62 64 67 66 67 67 64 63 64 62 63 66 63 60 60 60 59 59 59 60 60 61 63 63 63 63 62 60 58 56 55 53 52 51 50 49 47 46 46 45 45 45 45 45 44 43 41 38 34 33 32 32 32 31 30 28 27 27 27 27 28 28 29 29 29 30 30 30 29 28 28 27 26 25 24 22 22 21 22 22 21 22 22 22 22 22 22 23 23 24 25 26 26 26 26
64 64 65 66 68 67 68 67 64 64 64 61 62 66 64 60 59 58 58 60 61 62 63 62 63 62 62 62 61 59 57 55 54 53 53 51 50 49 47 47 47 47 47 48 47 47 45 44 43 41 38 36 35 34 33 32 32 31 30 30 30 31 31 31 31 32 32 32 31 30 30 29 28 27 26 25 24 24 23 23 23 23 23 23 23 23 23 23 24 24 25 25 26 27 27 27 28
65 65 66 66 63 64 66 64 64 64 61 60 59 61 61 58 57 58 57 59 61 61 62 61 62 63 63 62 60 58 57 55 54 53 52 52 50 49 49 48 49 49 49 49 48 47 46 44 43 42 41 39 38 36 34 34 33 33 34 34 34 34 34 35 35 35 33 32 31 31 30 29 29 28 27 26 25 24 24 24 23 23 23 23 23 23 23 23 23 24 24 25 25 26 27 27 28
65 66 67 66 64 65 65 63 64 65 63 63 60 60 62 60 58 60 59 60 61 60 60 60 60 61 60 58 56 55 54 54 54 54 53 53 52 51 50 50 51 51 51 50 49 47 46 45 44 43 42 42 40 38 36 35 35 36 36 37 37 37 37 37 36 34 33 32 31 31 30 29 28 27 26 26 25 25 24 24 23 23 23 22 22 22 22 22 22 22 23 23 23 24 25 26 27
65 68 68 68 68 67 67 66 67 68 68 66 63 62 64 63 60 62 62 60 59 58 57 57 57 57 56 55 54 53 54 55 55 55 55 55 54 53 52 52 52 52 51 51 49 48 47 45 45 45 45 44 43 41 39 38 37 37 38 38 38 38 37 36 35 34 33 32 31 30 29 28 27 27 26 26 25 25 25 24 23 23 22 22 21 21 21 21 20 20 20 21 21 22 23 23 24
66 68 67 66 68 68 71 72 69 70 69 63 61 62 65 66 61 59 58 57 54 54 55 54 54 55 55 54 54 54 55 56 57 57 57 57 56 55 54 53 53 53 52 51 50 49 48 47 47 47 48 47 46 44 43 42 40 40 39 38 37 37 36 36 35 34 33 32 31 30 29 28 28 27 26 25 25 24 24 23 23 22 22 21 21 20 20 19 19 19 19 19 19 19 20 20 21
65 66 66 68 70 69 73 74 72 75 71 63 61 62 65 66 60 55 55 54 53 52 52 52 53 55 56 56 56 56 56 57 58 58 58 58 57 56 55 54 53 53 52 51 51 50 50 49 50 52 52 51 49 47 46 44 42 41 39 38 38 38 37 37 36 35 34 32 31 30 29 28 27 26 25 24 24 23 23 22 22 22 21 21 20 19 19 19 18 18 18 17 17 17 18 18 19
65 66 69 74 75 73 76 77 77 78 71 62 61 60 61 60 57 58 57 55 54 52 51 53 54 57 59 59 59 59 58 58 58 59 58 57 57 55 55 54 53 52 52 52 52 53 53 53 54 56 55 53 51 49 47 44 42 40 39 39 39 38 38 37 36 35 34 32 31 30 28 27 26 24 24 23 23 22 22 22 21 21 21 20 19 19 18 18 17 17 17 16 16 16 16 16 17
66 67 72 78 80 82 86 85 80 75 67 61 61 62 61 55 54 60 59 56 56 54 53 54 55 58 60 60 60 61 61 61 60 60 59 57 56 55 55 54 53 53 53 54 55 56 57 57 57 58 56 53 50 47 45 42 40 40 40 39 39 39 38 37 36 34 33 32 30 29 27 26 25 24 23 23 22 22 21 21 21 20 20 19 19 18 18 17 17 16 16 16 16 15 15 15 16
67 67 69 73 77 79 82 81 76 71 67 63 63 66 64 56 56 62 59 57 58 57 57 58 58 61 62 60 60 61 63 64 63 60 58 57 56 56 55 55 55 55 55 56 58 59 59 59 58 56 53 49 47 44 42 41 40 40 40 40 40 39 37 36 34 33 32 30 29 28 27 26 25 24 23 22 22 21 20 20 19 19 19 18 18 17 17 17 17 16 16 15 15 15 15 15 16
69 68 68 71 72 70 71 73 71 70 72 71 67 66 63 61 64 64 60 60 60 60 60 60 61 62 62 63 63 63 64 65 64 62 59 58 58 57 57 56 56 56 56 56 56 56 56 55 54 51 48 46 44 43 42 41 41 41 41 41 39 38 36 34 33 31 30 29 28 27 26 25 24 23 22 22 21 20 20 19 18 18 18 17 17 17 16 16 16 16 16 15 15 15 15 16 16
68 68 69 70 70 71 73 71 69 72 74 70 64 61 60 61 64 64 63 63 64 64 63 62 62 62 62 63 64 64 65 65 64 63 61 61 60 58 56 54 53 52 51 51 50 51 51 50 48 46 44 44 43 42 42 41 41 42 41 40 38 35 34 32 30 30 29 27 27 26 25 24 23 22 21 20 19 19 18 18 17 17 16 16 16 16 15 15 16 16 16 16 15 16 16 16 17
71 72 70 70 71 74 76 72 74 81 80 70 62 61 61 60 61 64 68 68 66 66 65 63 63 62 61 62 62 62 62 63 62 60 59 58 56 53 50 48 47 47 47 47 48 48 47 45 44 44 43 43 43 42 43 43 43 42 40 37 35 33 32 30 29 28 27 26 25 24 23 22 21 20 19 18 18 17 16 16 15 15 15 15 14 14 14 14 15 15 15 16 16 16 16 16 17
73 73 70 71 74 77 76 75 80 86 86 78 67 61 61 60 60 64 68 68 67 65 63 61 60 59 59 60 61 61 60 61 60 58 55 53 50 48 47 46 46 47 47 47 47 46 44 43 43 43 43 44 44 45 45 45 42 39 37 35 33 31 30 29 28 27 26 24 23 22 21 20 19 18 17 16 16 16 15 15 15 14 14 14 14 14 15 14 15 15 15 16 16 17 17 16 17
73 73 72 73 76 78 77 77 79 80 84 84 74 64 60 59 59 62 64 64 64 62 60 58 57 56 57 57 58 57 57 57 56 53 50 48 47 47 46 47 48 48 48 47 46 45 44 44 44 44 46 46 47 46 44 42 39 37 35 33 31 30 28 27 26 25 24 22 21 20 19 18 17 17 16 16 15 15 14 14 14 14 13 13 14 14 14 14 14 15 15 15 16 16 17 17 17
73 75 76 76 76 77 78 76 75 78 84 87 84 74 61 58 59 59 61 62 61 59 56 55 54 54 53 52 51 51 51 51 49 47 46 46 46 47 47 49 49 49 49 47 46 46 46 47 47 48 49 48 46 44 40 38 36 34 32 30 30 28 27 26 24 23 21 20 19 18 17 17 16 16 15 14 14 13 13 12 12 12 12 12 12 12 12 12 12 13 13 14 15 16 16 17 18
73 76 77 75 75 78 81 81 77 78 81 81 84 76 59 58 64 62 63 64 59 56 54 51 52 52 51 49 48 48 48 49 48 46 47 47 47 48 50 51 51 50 50 49 49 49 50 50 51 50 49 46 43 41 38 36 34 32 31 30 29 27 25 23 22 20 19 19 18 17 17 16 14 14 13 12 12 12 12 12 12 12 12 12 12 12 12 12 12 12 12 13 14 15 16 16 18